FW4469 Weather Reports


Display with metric or nautical units.
time (UTC)temp
F
wind
direction
speed
MPH
gust
MPH
rain 1hr
in
rain 24hr
in
rain mn
in
humidity
%
barometer
mb
20260906161008 74 295 4.0 8.0 0.00 0.03 0.03 56 1016.8
20260906160003 75 300 4.0 7.0 0.00 0.03 0.03 55 1017.2
20260906155003 74 303 4.0 8.0 0.00 0.03 0.03 57 1017.4
20260906154009 74 301 4.0 10.0 0.00 0.03 0.03 58 1017.4
20260906153008 72 301 4.0 7.0 0.00 0.03 0.03 60 1017.4
20260906152217 72 301 4.0 8.0 0.00 0.03 0.03 61 1017.3
20260906151224 71 306 4.0 8.0 0.00 0.03 0.03 63 1017.4
20260906150013 70 300 4.0 8.0 0.00 0.03 0.03 65 1017.8
20260906145008 71 294 4.0 8.0 0.00 0.03 0.03 60 1018.0
20260906144223 72 301 4.0 9.0 0.00 0.03 0.03 60 1018.3
20260906143009 73 306 4.0 9.0 0.00 0.03 0.03 61 1018.4
20260906142013 73 293 4.0 8.0 0.00 0.03 0.03 62 1018.8
20260906141004 70 300 4.0 8.0 0.00 0.03 0.03 66 1018.9
20260906140008 70 302 4.0 7.0 0.00 0.03 0.03 69 1019.1
20260906135009 70 307 4.0 7.0 0.00 0.03 0.03 65 1019.3
20260906134008 71 303 4.0 6.0 0.00 0.03 0.03 64 1019.3
20260906133003 70 302 4.0 8.0 0.00 0.03 0.03 67 1019.2
20260906132013 67 301 3.0 7.0 0.00 0.03 0.03 72 1019.2
20260906131222 67 301 4.0 7.0 0.00 0.03 0.03 70 1019.4
20260906130004 69 299 4.0 8.0 0.00 0.03 0.03 67 1019.8
20260906125003 70 302 4.0 8.0 0.00 0.03 0.03 63 1019.7
20260906124003 70 299 4.0 7.0 0.00 0.03 0.03 64 1019.7
20260906123008 71 302 4.0 7.0 0.00 0.03 0.03 60 1019.8
20260906122010 70 302 4.0 7.0 0.00 0.03 0.03 63 1019.8
20260906121008 68 300 3.0 7.0 0.00 0.03 0.03 66 1020.2
20260906120008 66 301 3.0 6.0 0.00 0.03 0.03 70 1020.0
20260906115217 66 299 3.0 6.0 0.00 0.03 0.03 66 1019.7
20260906114010 66 303 3.0 7.0 0.00 0.03 0.03 67 1020.2
20260906113003 66 306 3.0 6.0 0.00 0.03 0.03 70 1020.2
20260906112008 67 308 4.0 6.0 0.00 0.03 0.03 68 1020.3
20260906111003 66 303 4.0 6.0 0.00 0.03 0.03 70 1020.2
20260906110009 68 302 3.0 7.0 0.00 0.03 0.03 67 1020.6
20260906105008 66 304 3.0 7.0 0.00 0.03 0.03 73 1020.5
20260906104008 62 309 3.0 7.0 0.00 0.03 0.03 80 1020.8
20260906103008 62 310 3.0 6.0 0.00 0.03 0.03 78 1020.9
20260906102217 62 314 3.0 6.0 0.00 0.03 0.03 79 1021.0
20260906101008 62 308 3.0 5.0 0.00 0.03 0.03 80 1021.1
20260906100008 61 313 3.0 6.0 0.00 0.03 0.03 81 1021.0
20260906095003 60 319 3.0 5.0 0.00 0.03 0.03 81 1021.3
20260906094008 60 314 3.0 5.0 0.00 0.03 0.03 84 1021.3
20260906093008 60 314 3.0 7.0 0.00 0.03 0.03 84 1021.2
20260906092008 60 308 3.0 5.0 0.00 0.03 0.03 84 1021.3
20260906091008 60 312 3.0 5.0 0.00 0.03 0.03 86 1021.3
20260906090222 60 309 2.0 5.0 0.00 0.03 0.03 86 1021.5
20260906085218 59 312 3.0 6.0 0.00 0.03 0.03 85 1021.6
20260906084003 59 324 4.0 10.0 0.00 0.03 0.03 86 1021.5
20260906083218 58 319 4.0 10.0 0.00 0.03 0.03 84 1021.5
20260906082218 58 308 3.0 8.0 0.00 0.03 0.03 85 1021.6
20260906081008 57 319 3.0 7.0 0.00 0.03 0.03 86 1021.4
20260906080011 58 304 2.0 9.0 0.00 0.03 0.03 87 1021.7
20260906075009 57 320 3.0 9.0 0.00 0.03 0.03 88 1021.6
20260906074003 57 316 2.0 8.0 0.00 0.03 0.03 89 1021.5
20260906073008 56 331 3.0 9.0 0.00 0.03 0.03 90 1021.7
20260906072008 56 302 2.0 6.0 0.00 0.03 0.03 91 1021.7
20260906071008 56 303 2.0 6.0 0.00 0.03 0.03 92 1021.7
20260906070003 55 287 2.0 6.0 0.00 0.03 0.03 93 1021.4
20260906065003 55 291 2.0 6.0 0.02 0.03 0.03 94 1021.5
20260906064008 54 321 2.0 5.0 0.03 0.03 0.03 93 1021.7
20260906063223 54 333 2.0 6.0 0.03 0.03 0.03 92 1021.4
20260906062008 53 298 2.0 6.0 0.03 0.03 0.03 93 1021.3
20260906061005 53 309 1.0 5.0 0.03 0.03 0.03 91 1021.7
20260906060003 54 314 2.0 7.0 0.03 0.03 0.03 91 1021.6
20260906055223 54 319 3.0 8.0 0.02 0.02 0.02 91 1021.7
20260906054008 55 284 2.0 7.0 0.00 0.00 0.00 91 1021.6
20260906053003 55 297 2.0 5.0 0.00 0.00 0.00 91 1021.8
20260906052008 55 301 2.0 6.0 0.00 0.00 0.00 91 1022.1
20260906051217 55 335 4.0 8.0 0.00 0.00 0.00 90 1022.0
20260906050003 55 329 4.0 8.0 0.00 0.00 0.00 86 1022.1
20260906045003 54 319 3.0 8.0 0.00 0.00 0.00 85 1022.3
20260906044003 54 291 2.0 7.0 0.00 0.00 0.00 85 1022.3
20260906043008 54 327 2.0 6.0 0.00 0.00 0.00 84 1022.6
20260906042008 54 310 3.0 8.0 0.00 0.00 0.00 83 1022.6
20260906041223 54 346 6.0 13.0 0.00 0.00 0.00 83 1022.7
20260906040218 54 345 4.0 8.0 0.00 0.00 0.00 82 1022.8
20260906035003 54 321 3.0 7.0 0.00 0.00 0.00 83 1023.0
20260906034003 54 328 3.0 8.0 0.00 0.00 0.00 83 1022.9
20260906033003 54 285 2.0 3.0 0.00 0.00 0.00 84 1022.9
20260906032003 54 310 2.0 4.0 0.00 0.00 0.00 84 1023.1
20260906031003 53 322 3.0 4.0 0.00 0.00 0.00 84 1023.1
20260906030006 53 321 2.0 4.0 0.00 0.00 0.00 84 1023.3
20260906025003 53 325 2.0 4.0 0.00 0.00 0.00 84 1023.3
20260906024218 53 324 2.0 4.0 0.00 0.00 0.00 85 1023.3
20260906023222 53 319 3.0 5.0 0.00 0.00 0.00 85 1023.4
20260906022003 53 331 2.0 5.0 0.00 0.00 0.00 86 1023.7
20260906021008 53 321 2.0 5.0 0.00 0.00 0.00 87 1023.9
20260906020218 53 322 2.0 4.0 0.00 0.00 0.00 87 1024.0
20260906015004 53 332 3.0 5.0 0.00 0.00 0.00 86 1024.1
20260906014218 53 327 3.0 5.0 0.00 0.00 0.00 86 1024.1
20260906013008 53 326 2.0 3.0 0.00 0.00 0.00 86 1024.3
20260906012003 53 324 2.0 3.0 0.00 0.00 0.00 85 1024.4
20260906011008 54 318 3.0 4.0 0.00 0.00 0.00 86 1024.4
20260906010003 54 322 3.0 4.0 0.00 0.00 0.00 86 1024.5
20260906005003 54 316 3.0 4.0 0.00 0.00 0.00 87 1024.6
20260906004223 54 318 3.0 4.0 0.00 0.00 0.00 88 1024.7
20260906003003 53 320 2.0 4.0 0.00 0.00 0.00 89 1024.8
20260906002003 53 324 2.0 3.0 0.00 0.00 0.00 89 1024.9
20260906001003 52 326 2.0 3.0 0.00 0.00 0.00 88 1025.1
20260906000003 52 325 2.0 3.0 0.00 0.00 0.00 88 1025.3
20260905235008 52 322 2.0 3.0 0.00 0.00 0.00 87 1025.5
20260905234008 52 324 2.0 3.0 0.00 0.00 0.00 87 1025.4
20260905233008 52 325 2.0 3.0 0.00 0.00 0.00 86 1025.4
20260905232008 53 323 2.0 3.0 0.00 0.00 0.00 86 1025.3
20260905231221 53 322 2.0 3.0 0.00 0.00 0.00 86 1025.3
20260905230003 53 322 2.0 3.0 0.00 0.00 0.00 85 1025.4
20260905225008 53 322 2.0 3.0 0.00 0.00 0.00 85 1025.5
20260905224008 53 319 2.0 3.0 0.00 0.00 0.00 85 1025.4
20260905223003 53 320 2.0 3.0 0.00 0.00 0.00 85 1025.3
20260905222008 53 323 2.0 3.0 0.00 0.00 0.00 85 1025.1
20260905221008 53 322 2.0 3.0 0.00 0.00 0.00 85 1025.1
20260905220008 53 322 2.0 3.0 0.00 0.00 0.00 85 1025.4
20260905215008 53 322 2.0 3.0 0.00 0.00 0.00 84 1025.6
20260905214008 53 321 2.0 3.0 0.00 0.00 0.00 84 1025.5
20260905213222 53 321 2.0 3.0 0.00 0.00 0.00 84 1025.4
20260905212218 54 318 2.0 3.0 0.00 0.00 0.00 83 1025.7
20260905211003 53 317 2.0 3.0 0.00 0.00 0.00 83 1025.8
20260905210008 54 317 2.0 3.0 0.00 0.00 0.00 83 1025.7
20260905205008 54 323 3.0 3.0 0.00 0.00 0.00 83 1025.6
20260905204008 54 320 2.0 3.0 0.00 0.00 0.00 82 1025.7
20260905203008 54 321 2.0 3.0 0.00 0.00 0.00 81 1025.4
20260905202008 54 319 2.0 3.0 0.00 0.00 0.00 81 1025.3
20260905201008 55 316 2.0 3.0 0.00 0.00 0.00 80 1025.1
20260905200008 55 317 3.0 3.0 0.00 0.00 0.00 79 1025.0
20260905195004 55 316 2.0 3.0 0.00 0.00 0.00 79 1024.9
20260905194008 55 316 2.0 4.0 0.00 0.00 0.00 79 1025.0
20260905193003 55 316 3.0 4.0 0.00 0.00 0.00 77 1025.4
20260905192233 56 315 2.0 3.0 0.00 0.00 0.00 76 1025.1
20260905191003 56 313 2.0 3.0 0.00 0.00 0.00 74 1025.3
20260905190217 57 315 3.0 4.0 0.00 0.00 0.00 72 1025.3
20260905185003 59 316 3.0 4.0 0.00 0.00 0.00 69 1025.1
20260905184008 60 318 3.0 5.0 0.00 0.00 0.00 65 1025.1
20260905183008 62 315 3.0 4.0 0.00 0.00 0.00 63 1025.1
20260905182008 63 309 4.0 6.0 0.00 0.00 0.00 59 1025.0
20260905181008 65 313 4.0 7.0 0.00 0.00 0.00 55 1025.0
20260905180009 67 306 4.0 7.0 0.00 0.00 0.00 54 1024.9
20260905175008 67 304 4.0 8.0 0.00 0.00 0.00 53 1024.9
20260905174003 68 305 4.0 7.0 0.00 0.00 0.00 52 1025.3
20260905173008 69 303 4.0 7.0 0.00 0.00 0.00 50 1025.1
20260905172223 68 310 4.0 8.0 0.00 0.00 0.00 52 1025.1
20260905171003 69 306 5.0 7.0 0.00 0.00 0.00 50 1024.9
20260905170003 69 308 4.0 9.0 0.00 0.00 0.00 49 1025.0
20260905165222 70 305 4.0 7.0 0.00 0.00 0.00 51 1024.7
20260905164005 68 306 5.0 9.0 0.00 0.00 0.00 50 1024.4
20260905163003 69 307 5.0 7.0 0.00 0.00 0.00 50 1024.6
20260905162008 69 308 5.0 8.0 0.00 0.00 0.00 51 1024.5